Terug naar catalogus

STARLINK-3251

ActiefCommunicatieVLEO
NORAD 49729·PAYLOAD·🇺🇸 United States

Gelanceerd Dec 2, 2021 vanaf Cape Canaveral Space Force Station

Loading…

Volgende Passages (komende 24 uur)

TLE

VersSource: CelesTrak SupGP

Epoch: Sep 14, 2026, 21:06 UTC

1 49729C 21115F   26257.87965278  .00004877  00000+0  15689-3 0  2579
2 49729  53.1598  17.9763 0001096  78.1978 254.1706 15.31685011    10

Volg STARLINK-3251 in realtime met AllMySat

Download on the App Store